Time,TemperatureF,DewpointF,PressureIn,WindDirection,WindDirectionDegrees,WindSpeedMPH,WindSpeedGustMPH,Humidity,HourlyPrecipIn,Conditions,Clouds,dailyrainin,SoftwareType,DateUTC
2013-10-27 00:01:00,40.0,27.7,28.03,SW,235,4.0,13.0,61,0.00,,,0.10,WUHU216DAVISWMX,2013-10-27 04:01:00,
2013-10-27 00:02:00,40.0,27.7,28.04,WSW,243,5.0,13.0,61,0.00,,,0.10,WUHU216DAVISWMX,2013-10-27 04:02:00,
2013-10-27 00:07:00,40.0,28.1,28.03,SW,219,0.0,14.0,62,0.00,,,0.10,WUHU216DAVISWMX,2013-10-27 04:07:00,
2013-10-27 00:13:00,40.1,28.6,28.04,SW,234,4.0,14.0,63,0.00,,,0.10,WUHU216DAVISWMX,2013-10-27 04:13:00,
2013-10-27 00:17:00,40.1,28.2,28.03,WSW,241,5.0,9.0,62,0.00,,,0.10,WUHU216DAVISWMX,2013-10-27 04:17:00,
2013-10-27 00:22:00,40.1,28.6,28.03,WSW,245,6.0,14.0,63,0.00,,,0.10,WUHU216DAVISWMX,2013-10-27 04:22:00,
2013-10-27 00:28:00,40.3,28.8,28.03,SSW,213,2.0,14.0,63,0.00,,,0.10,WUHU216DAVISWMX,2013-10-27 04:28:00,
2013-10-27 00:33:00,40.3,28.8,28.03,WSW,249,6.0,10.0,63,0.00,,,0.10,WUHU216DAVISWMX,2013-10-27 04:33:00,
2013-10-27 00:38:00,40.4,29.3,28.03,SW,228,5.0,11.0,64,0.00,,,0.10,WUHU216DAVISWMX,2013-10-27 04:38:00,
2013-10-27 00:43:00,40.4,28.9,28.03,WSW,242,9.0,13.0,63,0.00,,,0.10,WUHU216DAVISWMX,2013-10-27 04:43:00,
2013-10-27 00:48:00,40.4,28.9,28.03,WSW,250,7.0,13.0,63,0.00,,,0.10,WUHU216DAVISWMX,2013-10-27 04:48:00,
2013-10-27 00:53:00,40.3,29.2,28.03,SW,230,5.0,11.0,64,0.00,,,0.10,WUHU216DAVISWMX,2013-10-27 04:53:00,
2013-10-27 00:58:00,40.3,29.2,28.03,SW,233,5.0,11.0,64,0.00,,,0.10,WUHU216DAVISWMX,2013-10-27 04:58:00,
2013-10-27 01:00:00,40.1,29.7,28.03,WSW,249,12.0,18.0,66,0.00,,,0.10,WUHU216DAVISWMX,2013-10-27 05:00:00,
2013-10-27 01:03:00,40.3,29.2,28.03,WSW,241,7.0,10.0,64,0.00,,,0.10,WUHU216DAVISWMX,2013-10-27 05:03:00,
2013-10-27 01:08:00,40.3,29.2,28.03,WSW,242,2.0,12.0,64,0.00,,,0.10,WUHU216DAVISWMX,2013-10-27 05:08:00,
2013-10-27 01:13:00,40.2,29.1,28.03,SW,234,10.0,17.0,64,0.00,,,0.10,WUHU216DAVISWMX,2013-10-27 05:13:00,
2013-10-27 01:18:00,40.3,29.2,28.03,SW,236,7.0,17.0,64,0.00,,,0.10,WUHU216DAVISWMX,2013-10-27 05:18:00,
2013-10-27 01:23:00,40.3,29.2,28.03,WSW,256,9.0,14.0,64,0.00,,,0.10,WUHU216DAVISWMX,2013-10-27 05:23:00,
2013-10-27 01:28:00,40.3,29.2,28.03,West,277,8.0,14.0,64,0.00,,,0.10,WUHU216DAVISWMX,2013-10-27 05:28:00,
2013-10-27 01:33:00,40.3,29.2,28.03,WSW,243,4.0,16.0,64,0.00,,,0.10,WUHU216DAVISWMX,2013-10-27 05:33:00,
2013-10-27 01:38:00,40.1,29.4,28.03,WSW,243,8.0,17.0,65,0.00,,,0.10,WUHU216DAVISWMX,2013-10-27 05:38:00,
2013-10-27 01:43:00,40.1,29.4,28.03,WSW,247,9.0,17.0,65,0.00,,,0.10,WUHU216DAVISWMX,2013-10-27 05:43:00,
2013-10-27 01:48:00,40.2,29.5,28.03,West,268,6.0,17.0,65,0.00,,,0.10,WUHU216DAVISWMX,2013-10-27 05:48:00,
2013-10-27 01:53:00,40.3,29.9,28.03,West,260,10.0,18.0,66,0.00,,,0.10,WUHU216DAVISWMX,2013-10-27 05:53:00,
2013-10-27 01:59:00,40.1,29.7,28.03,WSW,251,10.0,18.0,66,0.00,,,0.10,WUHU216DAVISWMX,2013-10-27 05:59:00,
2013-10-27 02:04:00,40.1,29.7,28.03,WSW,255,8.0,17.0,66,0.00,,,0.10,WUHU216DAVISWMX,2013-10-27 06:04:00,
2013-10-27 02:09:00,40.1,29.7,28.03,WSW,242,6.0,17.0,66,0.00,,,0.10,WUHU216DAVISWMX,2013-10-27 06:09:00,
2013-10-27 02:14:00,40.1,29.7,28.03,WSW,251,13.0,18.0,66,0.00,,,0.10,WUHU216DAVISWMX,2013-10-27 06:14:00,
2013-10-27 02:19:00,40.0,29.6,28.03,WSW,251,11.0,18.0,66,0.00,,,0.10,WUHU216DAVISWMX,2013-10-27 06:19:00,
2013-10-27 02:24:00,40.0,29.6,28.03,West,277,12.0,19.0,66,0.00,,,0.10,WUHU216DAVISWMX,2013-10-27 06:24:00,
2013-10-27 02:29:00,39.9,29.9,28.03,WSW,255,6.0,19.0,67,0.00,,,0.10,WUHU216DAVISWMX,2013-10-27 06:29:00,
2013-10-27 02:34:00,39.9,29.5,28.02,West,259,7.0,20.0,66,0.00,,,0.10,WUHU216DAVISWMX,2013-10-27 06:34:00,
2013-10-27 02:39:00,39.7,29.7,28.02,West,265,12.0,20.0,67,0.00,,,0.10,WUHU216DAVISWMX,2013-10-27 06:39:00,
2013-10-27 02:44:00,39.6,30.0,28.02,West,263,9.0,19.0,68,0.00,,,0.10,WUHU216DAVISWMX,2013-10-27 06:44:00,
2013-10-27 02:49:00,39.3,29.7,28.02,WSW,237,12.0,18.0,68,0.00,,,0.10,WUHU216DAVISWMX,2013-10-27 06:49:00,
2013-10-27 02:54:00,39.3,29.7,28.02,WSW,245,15.0,20.0,68,0.00,,,0.10,WUHU216DAVISWMX,2013-10-27 06:54:00,
2013-10-27 02:59:00,39.2,29.6,28.02,West,276,11.0,20.0,68,0.00,,,0.10,WUHU216DAVISWMX,2013-10-27 06:59:00,
2013-10-27 03:04:00,39.0,29.8,28.02,WSW,253,11.0,16.0,69,0.00,,,0.10,WUHU216DAVISWMX,2013-10-27 07:04:00,
2013-10-27 03:09:00,38.8,29.6,28.02,WSW,237,8.0,18.0,69,0.00,,,0.10,WUHU216DAVISWMX,2013-10-27 07:09:00,
2013-10-27 03:14:00,38.6,29.7,28.03,SW,232,5.0,18.0,70,0.00,,,0.10,WUHU216DAVISWMX,2013-10-27 07:14:00,
2013-10-27 03:19:00,38.5,30.0,28.03,WSW,246,7.0,17.0,71,0.00,,,0.10,WUHU216DAVISWMX,2013-10-27 07:19:00,
2013-10-27 03:24:00,38.5,30.0,28.03,WSW,244,10.0,13.0,71,0.00,,,0.10,WUHU216DAVISWMX,2013-10-27 07:24:00,
2013-10-27 03:29:00,38.4,29.9,28.03,SW,236,5.0,13.0,71,0.00,,,0.10,WUHU216DAVISWMX,2013-10-27 07:29:00,
2013-10-27 03:34:00,38.2,30.0,28.03,WSW,253,6.0,10.0,72,0.00,,,0.10,WUHU216DAVISWMX,2013-10-27 07:34:00,
2013-10-27 03:39:00,38.2,30.0,28.03,West,276,0.0,11.0,72,0.00,,,0.10,WUHU216DAVISWMX,2013-10-27 07:39:00,
2013-10-27 03:44:00,38.1,29.9,28.04,SW,225,0.0,13.0,72,0.00,,,0.10,WUHU216DAVISWMX,2013-10-27 07:44:00,
2013-10-27 03:49:00,37.9,29.7,28.04,West,259,0.0,13.0,72,0.00,,,0.10,WUHU216DAVISWMX,2013-10-27 07:49:00,
2013-10-27 03:54:00,37.8,29.6,28.03,WSW,238,3.0,8.0,72,0.00,,,0.10,WUHU216DAVISWMX,2013-10-27 07:54:00,
2013-10-27 03:59:00,37.8,29.6,28.04,WSW,258,6.0,9.0,72,0.00,,,0.10,WUHU216DAVISWMX,2013-10-27 07:59:00,
2013-10-27 04:04:00,37.7,29.9,28.04,SW,225,4.0,9.0,73,0.00,,,0.10,WUHU216DAVISWMX,2013-10-27 08:04:00,
2013-10-27 04:09:00,37.5,29.7,28.04,WSW,242,3.0,7.0,73,0.00,,,0.10,WUHU216DAVISWMX,2013-10-27 08:09:00,
2013-10-27 04:14:00,37.4,29.6,28.04,West,267,6.0,7.0,73,0.00,,,0.10,WUHU216DAVISWMX,2013-10-27 08:14:00,
2013-10-27 04:19:00,37.3,29.5,28.04,WSW,243,0.0,12.0,73,0.00,,,0.10,WUHU216DAVISWMX,2013-10-27 08:19:00,
2013-10-27 04:24:00,37.1,29.6,28.04,WSW,245,1.0,12.0,74,0.00,,,0.10,WUHU216DAVISWMX,2013-10-27 08:24:00,
2013-10-27 04:29:00,36.9,29.4,28.04,WSW,249,0.0,7.0,74,0.00,,,0.10,WUHU216DAVISWMX,2013-10-27 08:29:00,
2013-10-27 04:34:00,36.6,29.1,28.04,WSW,247,1.0,7.0,74,0.00,,,0.10,WUHU216DAVISWMX,2013-10-27 08:34:00,
2013-10-27 04:39:00,36.5,29.4,28.04,WSW,243,0.0,6.0,75,0.00,,,0.10,WUHU216DAVISWMX,2013-10-27 08:39:00,
2013-10-27 04:44:00,36.2,29.1,28.04,WSW,244,0.0,5.0,75,0.00,,,0.10,WUHU216DAVISWMX,2013-10-27 08:44:00,
2013-10-27 04:49:00,36.0,28.9,28.04,WSW,249,4.0,4.0,75,0.00,,,0.10,WUHU216DAVISWMX,2013-10-27 08:49:00,
2013-10-27 04:54:00,35.9,29.1,28.04,SW,221,0.0,4.0,76,0.00,,,0.10,WUHU216DAVISWMX,2013-10-27 08:54:00,
2013-10-27 04:59:00,35.5,28.7,28.04,SW,221,0.0,4.0,76,0.00,,,0.10,WUHU216DAVISWMX,2013-10-27 08:59:00,
2013-10-27 05:04:00,35.1,28.6,28.05,SW,221,0.0,0.0,77,0.00,,,0.10,WUHU216DAVISWMX,2013-10-27 09:04:00,
2013-10-27 05:09:00,34.8,28.4,28.05,SW,221,0.0,0.0,77,0.00,,,0.10,WUHU216DAVISWMX,2013-10-27 09:09:00,
2013-10-27 05:14:00,34.7,28.6,28.05,SW,221,0.0,0.0,78,0.00,,,0.10,WUHU216DAVISWMX,2013-10-27 09:14:00,
2013-10-27 05:19:00,34.4,28.6,28.05,SW,221,0.0,0.0,79,0.00,,,0.10,WUHU216DAVISWMX,2013-10-27 09:19:00,
2013-10-27 05:24:00,34.4,28.6,28.05,SW,221,0.0,0.0,79,0.00,,,0.10,WUHU216DAVISWMX,2013-10-27 09:24:00,
2013-10-27 05:29:00,34.3,28.5,28.05,SW,221,0.0,0.0,79,0.00,,,0.10,WUHU216DAVISWMX,2013-10-27 09:29:00,
2013-10-27 05:34:00,34.0,28.5,28.05,SW,221,0.0,0.0,80,0.00,,,0.10,WUHU216DAVISWMX,2013-10-27 09:34:00,
2013-10-27 05:39:00,33.9,28.4,28.05,SW,221,0.0,0.0,80,0.00,,,0.10,WUHU216DAVISWMX,2013-10-27 09:39:00,
2013-10-27 05:44:00,33.6,28.4,28.05,SW,221,0.0,0.0,81,0.00,,,0.10,WUHU216DAVISWMX,2013-10-27 09:44:00,
2013-10-27 05:49:00,33.5,28.3,28.05,SW,221,0.0,0.0,81,0.00,,,0.10,WUHU216DAVISWMX,2013-10-27 09:49:00,
2013-10-27 05:54:00,33.6,28.7,28.05,SW,221,0.0,0.0,82,0.00,,,0.10,WUHU216DAVISWMX,2013-10-27 09:54:00,
2013-10-27 05:59:00,33.6,28.4,28.06,SW,221,0.0,0.0,81,0.00,,,0.10,WUHU216DAVISWMX,2013-10-27 09:59:00,
2013-10-27 06:04:00,33.6,28.4,28.06,SW,221,0.0,2.0,81,0.00,,,0.10,WUHU216DAVISWMX,2013-10-27 10:04:00,
2013-10-27 06:09:00,33.5,28.6,28.06,SW,221,0.0,2.0,82,0.00,,,0.10,WUHU216DAVISWMX,2013-10-27 10:09:00,
2013-10-27 06:14:00,33.6,28.7,28.06,SW,221,0.0,3.0,82,0.00,,,0.10,WUHU216DAVISWMX,2013-10-27 10:14:00,
2013-10-27 06:19:00,33.5,28.9,28.06,SW,221,0.0,3.0,83,0.00,,,0.10,WUHU216DAVISWMX,2013-10-27 10:19:00,
2013-10-27 06:24:00,33.2,28.3,28.06,SW,221,0.0,0.0,82,0.00,,,0.10,WUHU216DAVISWMX,2013-10-27 10:24:00,
2013-10-27 06:29:00,33.0,28.4,28.06,SW,221,0.0,0.0,83,0.00,,,0.10,WUHU216DAVISWMX,2013-10-27 10:29:00,
2013-10-27 06:34:00,32.9,28.3,28.06,SW,221,0.0,0.0,83,0.00,,,0.10,WUHU216DAVISWMX,2013-10-27 10:34:00,
2013-10-27 06:39:00,32.6,27.7,28.06,SW,221,0.0,0.0,82,0.00,,,0.10,WUHU216DAVISWMX,2013-10-27 10:39:00,
2013-10-27 06:44:00,32.4,27.5,28.06,SW,221,0.0,0.0,82,0.00,,,0.10,WUHU216DAVISWMX,2013-10-27 10:44:00,
2013-10-27 06:49:00,32.2,27.6,28.06,SW,221,0.0,0.0,83,0.00,,,0.10,WUHU216DAVISWMX,2013-10-27 10:49:00,
2013-10-27 06:54:00,32.0,27.1,28.06,SW,221,0.0,0.0,82,0.00,,,0.10,WUHU216DAVISWMX,2013-10-27 10:54:00,
2013-10-27 06:59:00,31.5,26.9,28.06,SW,221,0.0,0.0,83,0.00,,,0.10,WUHU216DAVISWMX,2013-10-27 10:59:00,
2013-10-27 07:04:00,31.3,27.0,28.06,SW,221,0.0,0.0,84,0.00,,,0.10,WUHU216DAVISWMX,2013-10-27 11:04:00,
2013-10-27 07:09:00,30.8,26.5,28.06,SW,221,0.0,0.0,84,0.00,,,0.10,WUHU216DAVISWMX,2013-10-27 11:09:00,
2013-10-27 07:14:00,30.6,26.6,28.07,SW,221,0.0,0.0,85,0.00,,,0.10,WUHU216DAVISWMX,2013-10-27 11:14:00,
2013-10-27 07:19:00,30.6,26.9,28.07,SW,221,0.0,0.0,86,0.00,,,0.10,WUHU216DAVISWMX,2013-10-27 11:19:00,
2013-10-27 07:24:00,30.8,27.1,28.08,SW,231,0.0,1.0,86,0.00,,,0.10,WUHU216DAVISWMX,2013-10-27 11:24:00,
2013-10-27 07:29:00,30.7,27.0,28.07,SW,231,0.0,1.0,86,0.00,,,0.10,WUHU216DAVISWMX,2013-10-27 11:29:00,
2013-10-27 07:34:00,30.3,26.6,28.07,SW,231,0.0,0.0,86,0.00,,,0.10,WUHU216DAVISWMX,2013-10-27 11:34:00,
2013-10-27 07:39:00,29.9,26.5,28.08,SW,231,0.0,0.0,87,0.00,,,0.10,WUHU216DAVISWMX,2013-10-27 11:39:00,
2013-10-27 07:44:00,29.7,26.3,28.07,SW,231,0.0,0.0,87,0.00,,,0.10,WUHU216DAVISWMX,2013-10-27 11:44:00,
2013-10-27 07:49:00,29.4,26.0,28.07,SW,231,0.0,0.0,87,0.00,,,0.10,WUHU216DAVISWMX,2013-10-27 11:49:00,
2013-10-27 07:54:00,29.2,25.8,28.08,SW,231,0.0,0.0,87,0.00,,,0.10,WUHU216DAVISWMX,2013-10-27 11:54:00,
2013-10-27 07:59:00,29.0,25.6,28.08,SW,231,0.0,0.0,87,0.00,,,0.10,WUHU216DAVISWMX,2013-10-27 11:59:00,
2013-10-27 08:04:00,28.8,25.4,28.08,SW,231,0.0,0.0,87,0.00,,,0.10,WUHU216DAVISWMX,2013-10-27 12:04:00,
2013-10-27 08:09:00,28.8,25.4,28.08,SW,231,0.0,0.0,87,0.00,,,0.10,WUHU216DAVISWMX,2013-10-27 12:09:00,
2013-10-27 08:14:00,29.0,26.1,28.08,SW,231,0.0,0.0,89,0.00,,,0.10,WUHU216DAVISWMX,2013-10-27 12:14:00,
2013-10-27 08:19:00,29.2,26.3,28.09,SW,231,0.0,0.0,89,0.00,,,0.10,WUHU216DAVISWMX,2013-10-27 12:19:00,
2013-10-27 08:24:00,29.7,26.8,28.09,SW,231,0.0,0.0,89,0.00,,,0.10,WUHU216DAVISWMX,2013-10-27 12:24:00,
2013-10-27 08:29:00,30.1,27.5,28.09,SW,232,0.0,0.0,90,0.00,,,0.10,WUHU216DAVISWMX,2013-10-27 12:29:00,
2013-10-27 08:31:00,30.3,27.4,28.09,SW,231,0.0,0.0,89,0.00,,,0.10,WUHU216DAVISWMX,2013-10-27 12:31:00,
2013-10-27 08:36:00,30.6,27.7,28.10,SW,231,0.0,0.0,89,0.00,,,0.10,WUHU216DAVISWMX,2013-10-27 12:36:00,
2013-10-27 08:41:00,30.7,27.8,28.10,SW,231,0.0,0.0,89,0.00,,,0.10,WUHU216DAVISWMX,2013-10-27 12:41:00,
2013-10-27 08:46:00,30.7,27.8,28.11,SW,231,0.0,0.0,89,0.00,,,0.10,WUHU216DAVISWMX,2013-10-27 12:46:00,
2013-10-27 08:51:00,30.7,27.8,28.11,SW,231,0.0,0.0,89,0.00,,,0.10,WUHU216DAVISWMX,2013-10-27 12:51:00,
2013-10-27 08:56:00,30.7,27.8,28.11,SW,231,0.0,0.0,89,0.00,,,0.10,WUHU216DAVISWMX,2013-10-27 12:56:00,
2013-10-27 09:01:00,30.7,27.8,28.11,SW,231,0.0,0.0,89,0.00,,,0.10,WUHU216DAVISWMX,2013-10-27 13:01:00,
2013-10-27 09:06:00,30.7,27.8,28.11,SW,231,0.0,0.0,89,0.00,,,0.10,WUHU216DAVISWMX,2013-10-27 13:06:00,
2013-10-27 09:11:00,30.7,27.8,28.11,SW,231,0.0,0.0,89,0.00,,,0.10,WUHU216DAVISWMX,2013-10-27 13:11:00,
2013-10-27 09:16:00,30.7,27.8,28.11,SW,231,0.0,0.0,89,0.00,,,0.10,WUHU216DAVISWMX,2013-10-27 13:16:00,
2013-10-27 10:55:00,39.6,30.3,28.13,West,278,9.0,9.0,69,0.00,,,0.10,WUHU216DAVISWMX,2013-10-27 14:55:00,
2013-10-27 11:00:00,40.2,29.8,28.13,WSW,248,10.0,16.0,66,0.00,,,0.10,WUHU216DAVISWMX,2013-10-27 15:00:00,
2013-10-27 11:05:00,40.4,29.6,28.12,WNW,282,9.0,16.0,65,0.00,,,0.10,WUHU216DAVISWMX,2013-10-27 15:05:00,
2013-10-27 11:10:00,40.8,29.6,28.13,West,260,5.0,13.0,64,0.00,,,0.10,WUHU216DAVISWMX,2013-10-27 15:10:00,
2013-10-27 11:15:00,41.2,28.8,28.13,WSW,248,2.0,14.0,61,0.00,,,0.10,WUHU216DAVISWMX,2013-10-27 15:15:00,
2013-10-27 11:20:00,41.3,28.9,28.13,West,259,9.0,14.0,61,0.00,,,0.10,WUHU216DAVISWMX,2013-10-27 15:20:00,
2013-10-27 11:25:00,41.5,29.1,28.13,WSW,254,10.0,13.0,61,0.00,,,0.10,WUHU216DAVISWMX,2013-10-27 15:25:00,
2013-10-27 11:30:00,41.8,29.4,28.13,West,260,6.0,13.0,61,0.00,,,0.10,WUHU216DAVISWMX,2013-10-27 15:30:00,
2013-10-27 11:35:00,42.4,28.7,28.13,WSW,257,0.0,12.0,58,0.00,,,0.10,WUHU216DAVISWMX,2013-10-27 15:35:00,
2013-10-27 11:40:00,42.1,28.0,28.13,WSW,246,9.0,18.0,57,0.00,,,0.10,WUHU216DAVISWMX,2013-10-27 15:40:00,
2013-10-27 11:45:00,41.7,27.6,28.13,SW,227,9.0,19.0,57,0.00,,,0.10,WUHU216DAVISWMX,2013-10-27 15:45:00,
2013-10-27 11:50:00,41.8,28.2,28.13,WSW,248,8.0,19.0,58,0.00,,,0.10,WUHU216DAVISWMX,2013-10-27 15:50:00,
2013-10-27 11:55:00,42.4,28.3,28.13,WSW,241,9.0,14.0,57,0.00,,,0.10,WUHU216DAVISWMX,2013-10-27 15:55:00,
2013-10-27 12:00:00,42.8,28.7,28.13,SW,227,9.0,14.0,57,0.00,,,0.10,WUHU216DAVISWMX,2013-10-27 16:00:00,
2013-10-27 12:05:00,43.2,28.1,28.13,West,267,9.0,14.0,55,0.00,,,0.10,WUHU216DAVISWMX,2013-10-27 16:05:00,
2013-10-27 12:10:00,43.0,27.5,28.13,SW,225,4.0,14.0,54,0.00,,,0.10,WUHU216DAVISWMX,2013-10-27 16:10:00,
2013-10-27 12:15:00,43.2,27.7,28.13,West,280,11.0,18.0,54,0.00,,,0.10,WUHU216DAVISWMX,2013-10-27 16:15:00,
2013-10-27 12:20:00,42.8,27.3,28.13,WSW,239,0.0,18.0,54,0.00,,,0.10,WUHU216DAVISWMX,2013-10-27 16:20:00,
2013-10-27 12:25:00,43.4,27.9,28.13,WSW,256,11.0,17.0,54,0.00,,,0.10,WUHU216DAVISWMX,2013-10-27 16:25:00,
2013-10-27 12:30:00,43.5,27.0,28.13,WSW,249,5.0,20.0,52,0.00,,,0.10,WUHU216DAVISWMX,2013-10-27 16:30:00,
2013-10-27 12:35:00,42.9,27.4,28.13,WSW,242,12.0,20.0,54,0.00,,,0.10,WUHU216DAVISWMX,2013-10-27 16:35:00,
2013-10-27 12:40:00,43.0,28.0,28.13,SW,236,2.0,14.0,55,0.00,,,0.10,WUHU216DAVISWMX,2013-10-27 16:40:00,
2013-10-27 12:45:00,42.8,28.7,28.14,WSW,240,0.0,16.0,57,0.00,,,0.10,WUHU216DAVISWMX,2013-10-27 16:45:00,
2013-10-27 12:50:00,42.5,28.4,28.14,West,275,7.0,16.0,57,0.00,,,0.10,WUHU216DAVISWMX,2013-10-27 16:50:00,
2013-10-27 12:55:00,42.1,28.4,28.14,West,269,9.0,15.0,58,0.00,,,0.10,WUHU216DAVISWMX,2013-10-27 16:55:00,
2013-10-27 13:00:00,41.8,28.2,28.13,WSW,244,5.0,13.0,58,0.00,,,0.10,WUHU216DAVISWMX,2013-10-27 17:00:00,
2013-10-27 13:05:00,41.7,28.5,28.12,WSW,237,6.0,13.0,59,0.00,,,0.10,WUHU216DAVISWMX,2013-10-27 17:05:00,
2013-10-27 13:10:00,41.8,28.6,28.12,West,263,3.0,13.0,59,0.00,,,0.10,WUHU216DAVISWMX,2013-10-27 17:10:00,
2013-10-27 13:15:00,41.7,28.5,28.12,WSW,249,0.0,11.0,59,0.00,,,0.10,WUHU216DAVISWMX,2013-10-27 17:15:00,
2013-10-27 13:20:00,41.7,28.9,28.13,WSW,256,0.0,10.0,60,0.00,,,0.10,WUHU216DAVISWMX,2013-10-27 17:20:00,
2013-10-27 13:25:00,41.6,28.8,28.12,West,261,5.0,12.0,60,0.00,,,0.10,WUHU216DAVISWMX,2013-10-27 17:25:00,
2013-10-27 13:30:00,41.9,29.1,28.12,SW,224,4.0,12.0,60,0.00,,,0.10,WUHU216DAVISWMX,2013-10-27 17:30:00,
2013-10-27 13:35:00,42.8,29.5,28.12,SW,234,7.0,14.0,59,0.00,,,0.10,WUHU216DAVISWMX,2013-10-27 17:35:00,
2013-10-27 13:40:00,43.5,29.8,28.11,WSW,257,6.0,15.0,58,0.00,,,0.10,WUHU216DAVISWMX,2013-10-27 17:40:00,
2013-10-27 13:45:00,43.5,29.3,28.11,WSW,251,11.0,16.0,57,0.00,,,0.10,WUHU216DAVISWMX,2013-10-27 17:45:00,
2013-10-27 13:50:00,43.7,29.1,28.11,WNW,288,9.0,16.0,56,0.00,,,0.10,WUHU216DAVISWMX,2013-10-27 17:50:00,
2013-10-27 13:55:00,44.4,28.8,28.11,West,259,11.0,19.0,54,0.00,,,0.10,WUHU216DAVISWMX,2013-10-27 17:55:00,
2013-10-27 14:01:00,44.4,28.8,28.11,WSW,241,9.0,20.0,54,0.00,,,0.10,WUHU216DAVISWMX,2013-10-27 18:01:00,
2013-10-27 14:06:00,44.1,28.1,28.11,WSW,253,15.0,20.0,53,0.00,,,0.10,WUHU216DAVISWMX,2013-10-27 18:06:00,
2013-10-27 14:11:00,43.9,27.9,28.11,WSW,258,7.0,16.0,53,0.00,,,0.10,WUHU216DAVISWMX,2013-10-27 18:11:00,
2013-10-27 14:16:00,43.8,28.2,28.11,West,275,7.0,16.0,54,0.00,,,0.10,WUHU216DAVISWMX,2013-10-27 18:16:00,
2013-10-27 14:21:00,44.1,28.1,28.11,NW,318,0.0,14.0,53,0.00,,,0.10,WUHU216DAVISWMX,2013-10-27 18:21:00,
2013-10-27 14:26:00,44.7,27.6,28.11,West,269,12.0,14.0,51,0.00,,,0.10,WUHU216DAVISWMX,2013-10-27 18:26:00,
2013-10-27 14:31:00,44.4,27.9,28.12,WNW,287,4.0,12.0,52,0.00,,,0.10,WUHU216DAVISWMX,2013-10-27 18:31:00,
2013-10-27 14:36:00,44.4,27.4,28.12,West,275,8.0,12.0,51,0.00,,,0.10,WUHU216DAVISWMX,2013-10-27 18:36:00,
2013-10-27 14:41:00,44.3,27.3,28.11,WNW,286,10.0,13.0,51,0.00,,,0.10,WUHU216DAVISWMX,2013-10-27 18:41:00,
2013-10-27 14:46:00,44.7,27.6,28.11,West,260,11.0,13.0,51,0.00,,,0.10,WUHU216DAVISWMX,2013-10-27 18:46:00,
2013-10-27 14:51:00,45.3,28.2,28.11,WSW,244,6.0,13.0,51,0.00,,,0.10,WUHU216DAVISWMX,2013-10-27 18:51:00,
2013-10-27 14:56:00,45.5,27.9,28.11,WSW,243,7.0,13.0,50,0.00,,,0.10,WUHU216DAVISWMX,2013-10-27 18:56:00,
2013-10-27 15:01:00,45.5,27.4,28.11,SW,236,13.0,15.0,49,0.00,,,0.10,WUHU216DAVISWMX,2013-10-27 19:01:00,
2013-10-27 15:06:00,45.3,27.2,28.11,West,274,7.0,18.0,49,0.00,,,0.10,WUHU216DAVISWMX,2013-10-27 19:06:00,
2013-10-27 15:11:00,45.2,27.1,28.11,West,276,4.0,16.0,49,0.00,,,0.10,WUHU216DAVISWMX,2013-10-27 19:11:00,
2013-10-27 15:16:00,45.2,27.1,28.11,WNW,288,1.0,16.0,49,0.00,,,0.10,WUHU216DAVISWMX,2013-10-27 19:16:00,
2013-10-27 15:21:00,45.5,27.4,28.11,WNW,293,2.0,12.0,49,0.00,,,0.10,WUHU216DAVISWMX,2013-10-27 19:21:00,
2013-10-27 15:26:00,45.7,27.6,28.11,WSW,241,8.0,16.0,49,0.00,,,0.10,WUHU216DAVISWMX,2013-10-27 19:26:00,
2013-10-27 15:31:00,46.0,27.8,28.11,West,271,5.0,16.0,49,0.00,,,0.10,WUHU216DAVISWMX,2013-10-27 19:31:00,
2013-10-27 15:36:00,46.1,27.9,28.11,SW,236,5.0,12.0,49,0.00,,,0.10,WUHU216DAVISWMX,2013-10-27 19:36:00,
2013-10-27 15:41:00,46.1,27.9,28.11,SW,234,5.0,12.0,49,0.00,,,0.10,WUHU216DAVISWMX,2013-10-27 19:41:00,
2013-10-27 15:46:00,45.9,27.2,28.11,SW,232,9.0,13.0,48,0.00,,,0.10,WUHU216DAVISWMX,2013-10-27 19:46:00,
2013-10-27 15:51:00,46.0,27.8,28.11,West,279,4.0,16.0,49,0.00,,,0.10,WUHU216DAVISWMX,2013-10-27 19:51:00,
2013-10-27 15:56:00,46.1,27.4,28.11,West,262,10.0,16.0,48,0.00,,,0.10,WUHU216DAVISWMX,2013-10-27 19:56:00,
2013-10-27 16:01:00,46.3,27.6,28.11,WSW,253,6.0,15.0,48,0.00,,,0.10,WUHU216DAVISWMX,2013-10-27 20:01:00,
2013-10-27 16:06:00,46.0,27.8,28.11,West,267,7.0,14.0,49,0.00,,,0.10,WUHU216DAVISWMX,2013-10-27 20:06:00,
2013-10-27 16:11:00,45.9,27.8,28.11,WSW,240,14.0,16.0,49,0.00,,,0.10,WUHU216DAVISWMX,2013-10-27 20:11:00,
2013-10-27 16:16:00,45.7,27.6,28.11,SW,229,8.0,16.0,49,0.00,,,0.10,WUHU216DAVISWMX,2013-10-27 20:16:00,
2013-10-27 16:21:00,46.0,27.3,28.11,West,280,3.0,9.0,48,0.00,,,0.10,WUHU216DAVISWMX,2013-10-27 20:21:00,
2013-10-27 16:26:00,46.0,27.3,28.11,SW,225,0.0,10.0,48,0.00,,,0.10,WUHU216DAVISWMX,2013-10-27 20:26:00,
2013-10-27 16:31:00,46.2,28.0,28.11,West,273,5.0,10.0,49,0.00,,,0.10,WUHU216DAVISWMX,2013-10-27 20:31:00,
2013-10-27 16:36:00,46.3,28.1,28.11,West,274,4.0,13.0,49,0.00,,,0.10,WUHU216DAVISWMX,2013-10-27 20:36:00,
2013-10-27 16:41:00,46.1,27.4,28.11,WSW,252,9.0,13.0,48,0.00,,,0.10,WUHU216DAVISWMX,2013-10-27 20:41:00,
2013-10-27 16:46:00,46.0,27.3,28.11,West,265,6.0,15.0,48,0.00,,,0.10,WUHU216DAVISWMX,2013-10-27 20:46:00,
2013-10-27 16:51:00,45.8,27.1,28.11,WSW,244,1.0,15.0,48,0.00,,,0.10,WUHU216DAVISWMX,2013-10-27 20:51:00,
2013-10-27 16:56:00,46.1,27.9,28.11,SW,234,4.0,10.0,49,0.00,,,0.10,WUHU216DAVISWMX,2013-10-27 20:56:00,
2013-10-27 17:01:00,46.0,27.3,28.11,WSW,251,5.0,12.0,48,0.00,,,0.10,WUHU216DAVISWMX,2013-10-27 21:01:00,
2013-10-27 17:06:00,45.9,27.8,28.11,WSW,250,2.0,12.0,49,0.00,,,0.10,WUHU216DAVISWMX,2013-10-27 21:06:00,
2013-10-27 17:11:00,46.0,27.8,28.11,WSW,258,4.0,9.0,49,0.00,,,0.10,WUHU216DAVISWMX,2013-10-27 21:11:00,
2013-10-27 17:16:00,45.9,27.8,28.11,WSW,256,10.0,10.0,49,0.00,,,0.10,WUHU216DAVISWMX,2013-10-27 21:16:00,
2013-10-27 17:21:00,45.6,27.5,28.11,West,261,0.0,10.0,49,0.00,,,0.10,WUHU216DAVISWMX,2013-10-27 21:21:00,
2013-10-27 17:26:00,45.6,28.0,28.11,West,261,0.0,10.0,50,0.00,,,0.10,WUHU216DAVISWMX,2013-10-27 21:26:00,
2013-10-27 17:31:00,45.6,28.0,28.11,WSW,257,5.0,7.0,50,0.00,,,0.10,WUHU216DAVISWMX,2013-10-27 21:31:00,
2013-10-27 17:36:00,45.4,27.8,28.11,WSW,243,0.0,7.0,50,0.00,,,0.10,WUHU216DAVISWMX,2013-10-27 21:36:00,
2013-10-27 17:41:00,45.5,28.4,28.12,WNW,287,5.0,7.0,51,0.00,,,0.10,WUHU216DAVISWMX,2013-10-27 21:41:00,
2013-10-27 17:46:00,45.2,27.6,28.12,West,270,3.0,5.0,50,0.00,,,0.10,WUHU216DAVISWMX,2013-10-27 21:46:00,
2013-10-27 17:51:00,44.8,27.7,28.12,WSW,248,0.0,6.0,51,0.00,,,0.10,WUHU216DAVISWMX,2013-10-27 21:51:00,
2013-10-27 17:56:00,44.7,27.6,28.12,WSW,255,0.0,6.0,51,0.00,,,0.10,WUHU216DAVISWMX,2013-10-27 21:56:00,
2013-10-27 18:01:00,44.4,27.9,28.12,West,263,0.0,4.0,52,0.00,,,0.10,WUHU216DAVISWMX,2013-10-27 22:01:00,
2013-10-27 18:06:00,44.1,27.6,28.12,West,271,0.0,3.0,52,0.00,,,0.10,WUHU216DAVISWMX,2013-10-27 22:06:00,
2013-10-27 18:11:00,43.9,27.9,28.12,West,271,0.0,3.0,53,0.00,,,0.10,WUHU216DAVISWMX,2013-10-27 22:11:00,
2013-10-27 18:16:00,43.6,27.6,28.13,West,271,0.0,1.0,53,0.00,,,0.10,WUHU216DAVISWMX,2013-10-27 22:16:00,
2013-10-27 18:21:00,43.2,27.7,28.13,West,272,0.0,2.0,54,0.00,,,0.10,WUHU216DAVISWMX,2013-10-27 22:21:00,
2013-10-27 18:26:00,42.8,27.3,28.13,West,269,1.0,2.0,54,0.00,,,0.10,WUHU216DAVISWMX,2013-10-27 22:26:00,
2013-10-27 18:31:00,42.5,27.5,28.13,West,269,0.0,2.0,55,0.00,,,0.10,WUHU216DAVISWMX,2013-10-27 22:31:00,
2013-10-27 18:36:00,42.2,28.1,28.13,West,269,0.0,0.0,57,0.00,,,0.10,WUHU216DAVISWMX,2013-10-27 22:36:00,
2013-10-27 18:41:00,42.0,27.5,28.14,West,269,0.0,0.0,56,0.00,,,0.10,WUHU216DAVISWMX,2013-10-27 22:41:00,
2013-10-27 18:46:00,41.5,27.4,28.14,West,269,0.0,0.0,57,0.00,,,0.10,WUHU216DAVISWMX,2013-10-27 22:46:00,
2013-10-27 18:51:00,41.1,27.5,28.14,West,269,0.0,0.0,58,0.00,,,0.10,WUHU216DAVISWMX,2013-10-27 22:51:00,
2013-10-27 18:56:00,40.8,27.2,28.14,West,269,0.0,0.0,58,0.00,,,0.10,WUHU216DAVISWMX,2013-10-27 22:56:00,
2013-10-27 19:01:00,40.6,27.4,28.14,West,269,0.0,0.0,59,0.00,,,0.10,WUHU216DAVISWMX,2013-10-27 23:01:00,
2013-10-27 19:06:00,40.2,27.1,28.14,West,269,0.0,0.0,59,0.00,,,0.10,WUHU216DAVISWMX,2013-10-27 23:06:00,
2013-10-27 19:08:00,40.3,27.2,28.14,West,269,0.0,0.0,59,0.00,,,0.10,WUHU216DAVISWMX,2013-10-27 23:08:00,
2013-10-27 19:11:00,39.9,27.2,28.14,West,270,0.0,0.0,60,0.00,,,0.10,WUHU216DAVISWMX,2013-10-27 23:11:00,
2013-10-27 19:16:00,39.3,27.0,28.14,West,269,0.0,0.0,61,0.00,,,0.10,WUHU216DAVISWMX,2013-10-27 23:16:00,
2013-10-27 19:21:00,38.8,27.4,28.14,West,270,0.0,0.0,63,0.00,,,0.10,WUHU216DAVISWMX,2013-10-27 23:21:00,
2013-10-27 19:26:00,38.4,27.4,28.15,ESE,102,0.0,3.0,64,0.00,,,0.10,WUHU216DAVISWMX,2013-10-27 23:26:00,
2013-10-27 19:31:00,38.1,27.4,28.15,ESE,102,0.0,3.0,65,0.00,,,0.10,WUHU216DAVISWMX,2013-10-27 23:31:00,
2013-10-27 19:36:00,37.8,27.2,28.15,ESE,102,0.0,1.0,65,0.00,,,0.10,WUHU216DAVISWMX,2013-10-27 23:36:00,
2013-10-27 19:41:00,37.6,27.0,28.15,ESE,102,0.0,1.0,65,0.00,,,0.10,WUHU216DAVISWMX,2013-10-27 23:41:00,
2013-10-27 19:46:00,37.4,27.5,28.15,ESE,102,0.0,0.0,67,0.00,,,0.10,WUHU216DAVISWMX,2013-10-27 23:46:00,
2013-10-27 19:51:00,37.1,27.2,28.15,ESE,102,0.0,0.0,67,0.00,,,0.10,WUHU216DAVISWMX,2013-10-27 23:51:00,
2013-10-27 19:56:00,36.7,27.2,28.15,ESE,102,0.0,0.0,68,0.00,,,0.10,WUHU216DAVISWMX,2013-10-27 23:56:00,
2013-10-27 20:01:00,36.5,27.4,28.16,ESE,102,0.0,0.0,69,0.00,,,0.10,WUHU216DAVISWMX,2013-10-28 00:01:00,
2013-10-27 20:06:00,36.2,27.1,28.15,ESE,102,0.0,0.0,69,0.00,,,0.10,WUHU216DAVISWMX,2013-10-28 00:06:00,
2013-10-27 20:11:00,35.9,27.1,28.16,ESE,102,0.0,0.0,70,0.00,,,0.10,WUHU216DAVISWMX,2013-10-28 00:11:00,
2013-10-27 20:16:00,35.6,26.8,28.16,ESE,102,0.0,0.0,70,0.00,,,0.10,WUHU216DAVISWMX,2013-10-28 00:16:00,
2013-10-27 20:21:00,35.4,26.7,28.16,ESE,102,0.0,0.0,70,0.00,,,0.10,WUHU216DAVISWMX,2013-10-28 00:21:00,
2013-10-27 20:26:00,35.1,26.4,28.16,ESE,102,0.0,0.0,70,0.00,,,0.10,WUHU216DAVISWMX,2013-10-28 00:26:00,
2013-10-27 20:31:00,34.9,26.5,28.15,ESE,102,0.0,0.0,71,0.00,,,0.10,WUHU216DAVISWMX,2013-10-28 00:31:00,
2013-10-27 20:36:00,34.7,27.0,28.16,ESE,102,0.0,0.0,73,0.00,,,0.10,WUHU216DAVISWMX,2013-10-28 00:36:00,
2013-10-27 20:41:00,34.5,26.8,28.16,ESE,102,0.0,0.0,73,0.00,,,0.10,WUHU216DAVISWMX,2013-10-28 00:41:00,
2013-10-27 20:46:00,34.4,26.7,28.16,ESE,102,0.0,0.0,73,0.00,,,0.10,WUHU216DAVISWMX,2013-10-28 00:46:00,
2013-10-27 20:51:00,34.1,26.7,28.16,ESE,102,0.0,0.0,74,0.00,,,0.10,WUHU216DAVISWMX,2013-10-28 00:51:00,
2013-10-27 20:56:00,33.9,26.5,28.16,ESE,102,0.0,0.0,74,0.00,,,0.10,WUHU216DAVISWMX,2013-10-28 00:56:00,
2013-10-27 21:01:00,33.7,26.7,28.16,ESE,102,0.0,0.0,75,0.00,,,0.10,WUHU216DAVISWMX,2013-10-28 01:01:00,
2013-10-27 21:06:00,33.6,26.6,28.16,ESE,102,0.0,0.0,75,0.00,,,0.10,WUHU216DAVISWMX,2013-10-28 01:06:00,
2013-10-27 21:11:00,33.4,26.4,28.17,ESE,102,0.0,0.0,75,0.00,,,0.10,WUHU216DAVISWMX,2013-10-28 01:11:00,
2013-10-27 21:16:00,33.4,26.4,28.16,ESE,102,0.0,0.0,75,0.00,,,0.10,WUHU216DAVISWMX,2013-10-28 01:16:00,
2013-10-27 21:21:00,33.4,26.4,28.17,ESE,102,0.0,0.0,75,0.00,,,0.10,WUHU216DAVISWMX,2013-10-28 01:21:00,
2013-10-27 21:26:00,33.4,26.4,28.17,ESE,102,0.0,0.0,75,0.00,,,0.10,WUHU216DAVISWMX,2013-10-28 01:26:00,
2013-10-27 21:31:00,33.4,26.4,28.16,ESE,102,0.0,0.0,75,0.00,,,0.10,WUHU216DAVISWMX,2013-10-28 01:31:00,
2013-10-27 21:36:00,33.4,26.4,28.16,ESE,102,0.0,0.0,75,0.00,,,0.10,WUHU216DAVISWMX,2013-10-28 01:36:00,
2013-10-27 21:41:00,33.4,26.4,28.16,ESE,102,0.0,0.0,75,0.00,,,0.10,WUHU216DAVISWMX,2013-10-28 01:41:00,
2013-10-27 21:46:00,33.4,26.4,28.16,ESE,102,0.0,0.0,75,0.00,,,0.10,WUHU216DAVISWMX,2013-10-28 01:46:00,
2013-10-27 21:51:00,31.6,25.8,28.17,ESE,102,0.0,0.0,79,0.00,,,0.10,WUHU216DAVISWMX,2013-10-28 01:51:00,
2013-10-27 22:01:00,31.3,25.9,28.17,ESE,102,0.0,0.0,80,0.00,,,0.10,WUHU216DAVISWMX,2013-10-28 02:01:00,
2013-10-27 22:06:00,31.0,25.9,28.17,ESE,102,0.0,0.0,81,0.00,,,0.10,WUHU216DAVISWMX,2013-10-28 02:06:00,
2013-10-27 22:11:00,30.8,25.9,28.17,ESE,102,0.0,0.0,82,0.00,,,0.10,WUHU216DAVISWMX,2013-10-28 02:11:00,
2013-10-27 22:16:00,30.7,26.1,28.17,ESE,102,0.0,0.0,83,0.00,,,0.10,WUHU216DAVISWMX,2013-10-28 02:16:00,
2013-10-27 22:21:00,30.7,26.1,28.17,ESE,102,0.0,0.0,83,0.00,,,0.10,WUHU216DAVISWMX,2013-10-28 02:21:00,
2013-10-27 22:26:00,30.6,26.0,28.18,ESE,102,0.0,0.0,83,0.00,,,0.10,WUHU216DAVISWMX,2013-10-28 02:26:00,
2013-10-27 22:31:00,30.5,25.9,28.18,ESE,102,0.0,0.0,83,0.00,,,0.10,WUHU216DAVISWMX,2013-10-28 02:31:00,
2013-10-27 22:36:00,30.4,25.8,28.18,ESE,102,0.0,0.0,83,0.00,,,0.10,WUHU216DAVISWMX,2013-10-28 02:36:00,
2013-10-27 22:41:00,30.4,25.8,28.18,ESE,102,0.0,0.0,83,0.00,,,0.10,WUHU216DAVISWMX,2013-10-28 02:41:00,
2013-10-27 22:46:00,30.4,26.1,28.18,ESE,102,0.0,0.0,84,0.00,,,0.10,WUHU216DAVISWMX,2013-10-28 02:46:00,
2013-10-27 22:51:00,30.3,26.0,28.18,ESE,102,0.0,0.0,84,0.00,,,0.10,WUHU216DAVISWMX,2013-10-28 02:51:00,
2013-10-27 22:56:00,30.3,26.0,28.18,ESE,102,0.0,0.0,84,0.00,,,0.10,WUHU216DAVISWMX,2013-10-28 02:56:00,
2013-10-27 23:01:00,30.1,25.8,28.18,ESE,102,0.0,0.0,84,0.00,,,0.10,WUHU216DAVISWMX,2013-10-28 03:01:00,
2013-10-27 23:06:00,30.1,25.8,28.18,ESE,102,0.0,0.0,84,0.00,,,0.10,WUHU216DAVISWMX,2013-10-28 03:06:00,
2013-10-27 23:11:00,30.0,25.7,28.18,ESE,102,0.0,0.0,84,0.00,,,0.10,WUHU216DAVISWMX,2013-10-28 03:11:00,
2013-10-27 23:16:00,29.9,25.6,28.18,ESE,102,0.0,0.0,84,0.00,,,0.10,WUHU216DAVISWMX,2013-10-28 03:16:00,
2013-10-27 23:21:00,29.8,25.3,28.18,ESE,102,0.0,0.0,83,0.00,,,0.10,WUHU216DAVISWMX,2013-10-28 03:21:00,
2013-10-27 23:26:00,29.6,24.8,28.18,ESE,102,0.0,0.0,82,0.00,,,0.10,WUHU216DAVISWMX,2013-10-28 03:26:00,
2013-10-27 23:31:00,29.3,24.5,28.18,ESE,102,0.0,0.0,82,0.00,,,0.10,WUHU216DAVISWMX,2013-10-28 03:31:00,
2013-10-27 23:36:00,29.0,24.5,28.18,ESE,102,0.0,0.0,83,0.00,,,0.10,WUHU216DAVISWMX,2013-10-28 03:36:00,
2013-10-27 23:41:00,28.7,24.2,28.18,ESE,102,0.0,0.0,83,0.00,,,0.10,WUHU216DAVISWMX,2013-10-28 03:41:00,
2013-10-27 23:46:00,28.4,24.2,28.18,ESE,102,0.0,0.0,84,0.00,,,0.10,WUHU216DAVISWMX,2013-10-28 03:46:00,
2013-10-27 23:51:00,28.3,24.6,28.18,ESE,102,0.0,0.0,86,0.00,,,0.10,WUHU216DAVISWMX,2013-10-28 03:51:00,
2013-10-27 23:57:00,28.1,24.4,28.18,ESE,102,0.0,0.0,86,0.00,,,0.10,WUHU216DAVISWMX,2013-10-28 03:57:00,